#timestamp,LO_Frequency,Hit,StdDev 
1504396815.1,286046998.7,P,0.1
1504396835.9,286046998.4,P,0.1
1504396855.7,286047000.5,Y,0.0
1504396875.6,286047002.5,P,2.0
1504396895.4,286047002.2,N,1.8
1504396915.2,286047001.4,N,1.6
1504396935.1,286047002.0,N,1.4
1504396936.0,286047002.0,N,1.3
1504396955.8,286047002.5,N,1.3
1504396975.7,286047002.4,N,1.2
1504396995.5,286047002.5,N,1.2
1504397015.3,286047001.8,N,1.1
1504397035.2,286047002.5,N,1.1
1504397055.0,286047001.5,N,1.1
1504397055.9,286047001.5,N,1.0
1504397075.7,286047002.0,N,1.0
1504397095.6,286047002.2,N,0.9
1504397115.4,286047002.4,N,0.9
1504397135.3,286047001.8,N,0.9
1504397155.1,286047002.2,N,0.9
1504397156.0,286047002.2,N,0.9
1504397175.8,286047001.7,N,0.8
1504397195.7,286047001.7,N,0.8
1504397215.5,286047001.9,N,0.8
1504397235.4,286047001.6,N,0.8
1504397255.2,286047002.2,N,0.8
1504397275.0,286047002.7,Y,0.0
1504397275.9,286047002.7,P,0.4
1504397295.8,286047000.8,N,0.8
1504397315.6,286046998.8,N,1.5
1504397335.5,286046998.5,N,1.7
1504397355.3,286047000.8,N,1.5
1504397375.1,286047001.2,N,1.4
1504397395.9,286046998.5,N,1.5
1504397415.7,286047000.7,N,1.4
1504397435.5,286047000.5,N,1.4
1504397455.4,286047000.3,N,1.3
1504397475.2,286047002.3,N,1.3
1504397495.1,286047002.2,N,1.4
1504397496.0,286047002.2,N,1.4
1504397515.8,286047002.0,N,1.4
1504397535.6,286047002.1,N,1.3
1504397555.5,286046999.9,N,1.3
1504397575.3,286046999.8,N,1.3
1504397595.1,286047002.6,N,1.3
1504397615.9,286047001.9,N,1.3
1504397635.7,286047002.5,N,1.3
1504397655.6,286047001.4,N,1.3
1504397675.4,286047002.3,N,1.3
1504397695.3,286047002.1,N,1.3
1504397715.1,286047002.7,N,1.3
1504397735.8,286047002.5,N,1.3
1504397755.7,286047001.8,N,1.3
1504397775.5,286047002.5,N,1.3
1504397795.4,286047002.2,N,1.3
1504397815.2,286047002.5,N,1.2
1504397835.0,286047002.0,N,1.3
1504397835.9,286047002.0,N,1.2
1504397855.8,286047001.6,N,1.2
1504397875.6,286047001.8,N,1.1
1504397895.5,286047003.8,Y,0.0
1504397915.3,286047001.4,P,0.1
1504397935.1,286047001.3,P,0.1
1504397955.9,286047002.5,P,0.5
1504397975.7,286047000.4,N,0.7
1504397995.5,286047000.7,N,0.7
1504398015.4,286047001.0,N,0.6
1504398035.2,286047001.1,N,0.6
1504398055.1,286047002.7,Y,0.0
1504398056.0,286047002.7,P,0.7
1504398075.8,286047001.2,N,0.7
1504398095.6,286047000.1,N,0.9
1504398115.5,286047000.0,N,1.0
1504398135.3,286046999.9,N,1.0
1504398155.2,286046999.7,N,1.0
1504398175.9,286047002.5,N,1.1
1504398195.7,286047002.4,N,1.1
1504398215.6,286047000.5,N,1.1
1504398235.4,286046999.9,N,1.1
1504398255.3,286047000.1,N,1.1
1504398275.1,286047001.1,N,1.0
1504398276.0,286047001.1,N,1.0
1504398295.8,286047000.4,N,1.0
1504398315.7,286047001.0,N,0.9
1504398335.5,286046998.2,N,1.1
1504398355.3,286046998.2,N,1.2
1504398375.2,286046998.3,N,1.3
1504398395.0,286046999.8,N,1.3
1504398395.9,286046999.8,N,1.2
1504398415.8,286046999.7,N,1.2
1504398435.6,286047002.7,N,1.3
1504398455.4,286046999.8,N,1.3
1504398475.3,286047002.3,N,1.3
1504398495.1,286047000.0,N,1.3
1504398515.9,286047000.2,N,1.3
1504398535.7,286047002.2,N,1.3
1504398555.5,286047004.4,Y,0.0
1504398575.4,286046999.9,P,0.3
1504398595.2,286047002.7,P,1.2
1504398615.1,286047000.1,N,1.1
1504398616.0,286047000.1,N,1.0
1504398635.8,286047002.6,N,1.2
1504398655.6,286047000.8,N,1.1
1504398675.5,286047000.0,N,1.1
1504398695.3,286047000.3,N,1.0
1504398715.1,286046999.8,N,1.0
1504398735.9,286047004.3,Y,0.0
1504398755.7,286047002.6,P,1.0
1504398775.6,286047002.8,N,1.0
1504398795.4,286047002.3,N,0.8
1504398815.2,286047002.1,N,0.7
1504398835.1,286047002.1,N,0.7
1504398836.0,286047002.1,Y,0.0
1504398855.8,286047000.1,P,1.0
1504398875.7,286047000.9,N,0.8
1504398895.5,286047000.7,N,0.7
1504398915.3,286046998.6,N,1.1
1504398935.2,286047001.1,N,1.1
1504398955.0,286047001.1,N,1.0
1504398955.9,286047001.1,N,1.0
1504398975.8,286047000.7,N,0.9
1504398995.6,286047001.1,N,0.9
1504399015.4,286046998.3,N,1.1
1504399035.3,286046998.2,N,1.2
1504399055.1,286047000.6,N,1.2
1504399075.9,286046998.4,N,1.2
1504399095.7,286046998.7,N,1.3
1504399115.5,286046998.5,N,1.3
1504399135.4,286046999.7,N,1.2
1504399155.2,286046998.6,N,1.2
1504399175.0,286046998.2,N,1.3
1504399175.9,286046998.2,N,1.3
1504399195.8,286047000.4,N,1.3
1504399215.6,286047001.0,N,1.3
1504399235.5,286047002.5,N,1.3
1504399255.3,286047000.2,N,1.3
1504399275.1,286046999.9,N,1.3
1504399295.9,286047000.4,N,1.3
1504399315.7,286046999.9,N,1.2
1504399335.6,286047000.7,N,1.2
1504399355.4,286047001.1,N,1.2
1504399375.2,286047000.8,N,1.2
1504399395.1,286047000.5,N,1.2
1504399396.0,286047000.5,N,1.2
1504399415.8,286047000.7,N,1.2
1504399435.6,286047000.4,N,1.2
1504399455.5,286046998.1,N,1.2
1504399475.3,286047001.1,N,1.2
1504399495.2,286047000.4,N,1.2
1504399515.0,286046998.5,N,1.2
1504399515.9,286046998.5,N,1.2
1504399535.8,286047000.5,N,1.2
1504399555.6,286046998.5,N,1.2
1504399575.4,286046999.0,N,1.1
1504399595.3,286046998.6,N,1.1
1504399615.1,286047001.2,N,1.1
1504399635.8,286046999.8,N,1.1
1504399655.7,286047002.7,N,1.2
1504399675.5,286047002.8,N,1.3
1504399695.4,286047000.2,N,1.3
1504399715.2,286047002.0,N,1.3
1504399735.0,286046999.7,N,1.2
1504399735.9,286046999.7,N,1.2
1504399755.8,286047000.1,N,1.2
1504399775.6,286047002.7,N,1.2
1504399795.5,286047002.8,N,1.3
1504399815.3,286047000.6,N,1.3
1504399835.1,286047000.7,N,1.3
1504399855.9,286047000.5,N,1.3
1504399875.7,286047002.7,N,1.3
1504399895.6,286047002.4,N,1.4
1504399915.4,286047000.1,N,1.4
1504399935.2,286046999.9,N,1.4
1504399955.1,286046999.8,N,1.4
1504399956.0,286046999.8,N,1.4
1504399975.8,286046999.8,N,1.4
1504399995.7,286047000.2,N,1.3
1504400015.5,286047002.0,N,1.4
1504400035.3,286047002.7,N,1.4
1504400055.2,286047002.0,N,1.4
1504400075.0,286047002.8,N,1.4
1504400075.9,286047002.8,N,1.4
1504400095.8,286047002.2,N,1.3
1504400115.6,286047002.5,N,1.3
1504400135.4,286047002.1,N,1.2
1504400155.3,286047002.2,N,1.2
1504400175.1,286047000.0,N,1.2
1504400195.8,286047002.3,N,1.2
1504400215.7,286046999.7,N,1.2
1504400235.5,286047002.6,N,1.2
1504400255.4,286047001.3,N,1.2
1504400275.2,286047001.5,N,1.2
1504400295.0,286047004.4,Y,0.0
1504400295.9,286047004.4,P,1.5
1504400315.8,286046999.8,N,1.9
1504400335.6,286047002.5,N,1.7
1504400355.5,286046999.7,N,1.8
1504400375.3,286047000.6,N,1.6
1504400395.1,286047000.3,N,1.6
